Simultaneous Nadir Overpasses (SNOs) Predictions

Prediction of SNOs between GOES-17 and AQUA Satellite Orbit:

Table of predicted SNOs for the next 14.0 days since TLE Epoch: 9/12/2025
Index Date Time (GOES-17) GOES-17 Lat,Lon AQUA Lat,Lon Distance(km) Time Diff (sec)
1 09/13/2025 20:43:59 0.20, -89.51 0.63, -87.47 231.96 80
2 09/14/2025 09:03:03 -0.19, -89.49 0.37, -92.08 294.65 80
3 09/16/2025 08:39:45 -0.21, -89.48 -0.71, -87.02 279.77 80
4 09/16/2025 20:58:59 0.20, -89.51 -0.24, -91.67 245.69 80
5 09/18/2025 20:38:21 0.21, -89.52 0.86, -86.62 330.30 80
6 09/19/2025 09:00:03 -0.20, -89.50 0.19, -91.21 195.29 80
7 09/21/2025 08:36:45 -0.21, -89.52 -0.94, -86.17 381.53 80
8 09/21/2025 20:58:38 0.20, -89.54 -0.05, -90.81 143.67 80
9 09/23/2025 20:35:19 0.21, -89.57 1.05, -85.75 434.35 80
10 09/24/2025 08:57:02 -0.19, -89.56 -0.01, -90.35 90.38 80
11 09/26/2025 08:33:43 -0.20, -89.58 -1.13, -85.29 487.47 80
